Location: Solon
(41.3849°N, 81.4081°W)
Time: 07:40:12
(UTC-04:00)

CZ-2C R/B - Visible Passes

Search period start: 02 September 2014 00:00
Search period end: 12 September 2014 00:00
Orbit: 705 x 909 km, 98.1° (Epoch: 01 September)

Date Brightness Start Highest point End Pass type
(mag) Time Alt. Az. Time Alt. Az. Time Alt. Az.
02 Sep 5.4 03:13:31 13° E 03:15:55 18° ENE 03:19:12 10° NNE visible
02 Sep 2.9 04:54:37 50° SW 04:55:19 55° W 05:00:15 10° NNW visible
03 Sep 5.9 02:50:39 10° ENE 02:51:48 11° ENE 02:52:56 10° NE visible
03 Sep 2.8 04:29:57 63° SSE 04:30:47 86° ENE 04:35:53 10° NNW visible
04 Sep 3.7 04:05:18 43° ESE 04:06:21 51° ENE 04:11:17 10° N visible
04 Sep 4.3 05:46:24 18° W 05:46:37 18° W 05:49:58 10° NW visible
05 Sep 4.6 03:40:38 26° E 03:42:02 31° ENE 03:46:29 10° N visible
05 Sep 3.7 05:21:44 30° W 05:21:53 30° W 05:26:20 10° NNW visible
06 Sep 5.3 03:15:59 16° E 03:17:48 19° ENE 03:21:22 10° NNE visible
06 Sep 3.0 04:57:04 51° WSW 04:57:14 52° W 05:02:15 10° NNW visible
07 Sep 5.8 02:51:52 10° E 02:53:41 12° ENE 02:55:31 10° NE visible
07 Sep 2.8 04:32:25 80° S 04:32:42 88° WSW 04:37:54 10° NNW visible
08 Sep 3.6 04:07:46 52° E 04:08:16 55° ENE 04:13:21 10° N visible
08 Sep 4.5 05:48:51 17° W 05:48:51 17° W 05:51:52 10° NW visible
09 Sep 4.5 03:43:06 31° E 03:43:56 33° ENE 03:48:35 10° N visible
09 Sep 3.9 05:24:12 28° W 05:24:12 28° W 05:28:19 10° NW visible
10 Sep 5.2 03:18:27 19° E 03:19:42 21° ENE 03:23:32 10° NNE visible
10 Sep 3.2 04:59:33 48° W 04:59:33 48° W 05:04:16 10° NNW visible
11 Sep 5.8 02:53:48 11° E 02:55:34 13° ENE 02:57:56 10° NNE visible
11 Sep 2.9 04:34:54 79° NW 04:34:54 79° NW 04:39:57 10° NNW visible
